Worland, WY

12:02 AM MDT on August 22, 2017 (GMT -0600)
Worland Municipal

Weather History for KWRL - October, 2011

Change the Weather History Date:

Friday, October 7, 2011

  Actual Average Record
Temperature  
Mean Temperature 46 °F 49 °F  
Max Temperature 54 °F 64 °F 82 °F (1980)
Min Temperature 37 °F 34 °F 22 °F (1985)
Degree Days  
Heating Degree Days 19 16  
Month to date heating degree days 28 104  
Since 1 July heating degree days 128 361  
Cooling Degree Days 0 0  
Month to date cooling degree days 15 0  
Year to date cooling degree days 692 535  
Moisture  
Dew Point 41 °F    
Average Humidity 80    
Maximum Humidity 96    
Minimum Humidity 63    
Precipitation  
Precipitation 0.93 in 0.03 in 1.22 in (1993)
Month to date precipitation 1.39 0.22  
Year to date precipitation 9.87 6.52  
Sea Level Pressure  
Sea Level Pressure 29.64 in    
Wind  
Wind Speed 8 mph (South)    
Max Wind Speed 15 mph    
Max Gust Speed -    
Visibility 6 miles    
Events Rain    
T = Trace of Precipitation, MM = Missing Value Source: NWS Daily Summary

Daily Weather History Graph

Daily Weather History Graph

Search for Another Location

Airport or City:

Trip Planner

Search our weather history database for the weather conditions in past years. The results will help you decide how hot, cold, wet, or windy it might be!

Date:

Astronomy

Oct. 07, 2011 Rise Set
Actual Time 7:16 AM MDT 6:42 PM MDT
Civil Twilight 6:47 AM MDT 7:11 PM MDT
Nautical Twilight 6:14 AM MDT 7:44 PM MDT
Astronomical Twilight 5:40 AM MDT 8:17 PM MDT
Moon 4:33 PM MDT (10/7) 3:00 AM MDT (10/7)
Length of Visible Light 12h 23m
Length of Day
11h 25m
Waxing Gibbous, 84% of the Moon is Illuminated
Oct 7
Waxing Gibbous
Oct 11
Full
Oct 19
Last Quarter
Oct 26
New
Nov 2
First Quarter

Hourly Weather History & Observations

Time (MDT) Temp. Windchill Dew Point Humidity Pressure Visibility Wind Dir Wind Speed Gust Speed Precip Events Conditions
12:07 AM 44.6 °F - 42.8 °F 93% 29.49 in 4.0 mi Calm Calm - 0.02 in Rain Light Rain
12:40 AM 44.6 °F 39.7 °F 42.8 °F 93% 29.48 in 9.0 mi West 9.2 mph - 0.03 in Rain Light Rain
12:53 AM 44.1 °F 40.8 °F 42.1 °F 93% 29.43 in 6.0 mi West 5.8 mph - 0.04 in   Overcast
1:02 AM 44.6 °F 40.2 °F 41.0 °F 87% 29.48 in 2.5 mi West 8.1 mph - 0.03 in Rain Heavy Rain
1:12 AM 44.6 °F 39.7 °F 42.8 °F 93% 29.48 in 4.0 mi WSW 9.2 mph - 0.04 in Rain Rain
1:23 AM 42.8 °F 37.5 °F 41.0 °F 93% 29.48 in 6.0 mi SW 9.2 mph - 0.06 in Rain Light Rain
1:53 AM 42.1 °F 36.1 °F 39.9 °F 92% 29.44 in 4.0 mi SSW 10.4 mph - 0.11 in Rain Rain
2:05 AM 42.8 °F 37.0 °F 39.2 °F 87% 29.50 in 3.0 mi SSW 10.4 mph - N/A Rain Heavy Rain
2:27 AM 41.0 °F 33.9 °F 39.2 °F 93% 29.51 in 2.5 mi SSW 12.7 mph - 0.18 in Rain Heavy Rain
2:40 AM 41.0 °F 34.3 °F 39.2 °F 93% 29.51 in 3.0 mi SSW 11.5 mph - 0.25 in Rain Heavy Rain
2:53 AM 39.0 °F 29.9 °F 37.0 °F 93% 29.47 in 3.0 mi SSW 17.3 mph - 0.31 in Rain Heavy Rain
3:53 AM 39.0 °F 31.0 °F 37.0 °F 93% 29.44 in 7.0 mi SSW 13.8 mph - 0.17 in Rain Light Rain
4:23 AM 39.2 °F 32.5 °F 37.4 °F 93% 29.49 in 4.0 mi SSW 10.4 mph - 0.06 in Rain Rain
4:39 AM 39.2 °F 33.0 °F 39.2 °F 100% 29.50 in 5.0 mi SW 9.2 mph - 0.08 in Rain Light Rain
4:48 AM 41.0 °F 33.9 °F 39.2 °F 93% 29.50 in 5.0 mi WSW 12.7 mph - 0.10 in Rain Rain
4:49 AM 41.0 °F 33.9 °F 39.0 °F 93% 29.45 in 5.0 mi WSW 12.7 mph - 0.10 in Rain Rain
5:12 AM 39.2 °F 30.2 °F 39.2 °F 100% 29.50 in 4.0 mi WSW 17.3 mph - 0.03 in Rain Rain
5:53 AM 41.0 °F 33.5 °F 39.0 °F 93% 29.49 in 4.0 mi SW 13.8 mph - 0.11 in Rain Rain
6:11 AM 42.8 °F 37.0 °F 39.2 °F 87% 29.54 in 6.0 mi WSW 10.4 mph - 0.02 in Rain Light Rain
6:48 AM 42.8 °F 38.6 °F 39.2 °F 87% 29.56 in 6.0 mi WSW 6.9 mph - 0.05 in Rain Light Rain
6:53 AM 42.1 °F 37.7 °F 39.9 °F 92% 29.54 in 6.0 mi West 6.9 mph - 0.05 in Rain Light Rain
7:53 AM 42.1 °F - 39.9 °F 92% 29.62 in 5.0 mi Calm Calm - 0.04 in Rain Light Rain
8:53 AM 43.0 °F - 41.0 °F 93% 29.67 in 3.0 mi Calm Calm - 0.06 in Rain Light Rain
9:10 AM 42.8 °F - 41.0 °F 93% 29.68 in 3.0 mi Calm Calm - 0.02 in Rain Light Rain
9:33 AM 42.8 °F - 41.0 °F 93% 29.69 in 3.0 mi Calm Calm - 0.04 in Rain Light Rain
9:53 AM 44.1 °F - 41.0 °F 89% 29.71 in 4.0 mi Calm Calm - 0.06 in Rain Light Rain
10:53 AM 45.0 °F 43.5 °F 42.1 °F 90% 29.73 in 6.0 mi Variable 3.5 mph - 0.05 in Rain Light Rain
11:09 AM 44.6 °F 41.4 °F 42.8 °F 93% 29.73 in 8.0 mi ESE 5.8 mph - 0.01 in Rain Light Rain
11:17 AM 44.6 °F 40.7 °F 42.8 °F 93% 29.73 in 9.0 mi ESE 6.9 mph - 0.01 in Rain Light Rain
11:24 AM 46.4 °F 41.5 °F 42.8 °F 87% 29.73 in 10.0 mi SE 10.4 mph - 0.01 in Rain Light Rain
11:53 AM 46.9 °F - 43.0 °F 86% 29.72 in 10.0 mi SE 11.5 mph - 0.01 in   Overcast
12:53 PM 48.9 °F - 44.1 °F 83% 29.73 in 10.0 mi ESE 10.4 mph - N/A   Mostly Cloudy
1:00 PM 48.2 °F - 42.8 °F 82% 29.74 in 10.0 mi East 11.5 mph - N/A   Mostly Cloudy
1:15 PM 50.0 °F - 42.8 °F 76% 29.74 in 10.0 mi East 11.5 mph - N/A   Scattered Clouds
1:53 PM 50.0 °F - 43.0 °F 77% 29.73 in 10.0 mi ESE 12.7 mph - N/A   Scattered Clouds
2:53 PM 52.0 °F - 43.0 °F 71% 29.74 in 10.0 mi East 11.5 mph - N/A   Overcast
3:53 PM 54.0 °F - 41.0 °F 62% 29.75 in 10.0 mi East 12.7 mph - N/A   Overcast
4:53 PM 51.1 °F - 41.0 °F 68% 29.78 in 10.0 mi East 10.4 mph - N/A   Overcast
5:53 PM 51.1 °F - 39.9 °F 66% 29.81 in 10.0 mi ESE 12.7 mph - N/A   Overcast
6:53 PM 48.9 °F - 42.1 °F 77% 29.85 in 10.0 mi East 8.1 mph - 0.00 in Rain Light Rain
7:53 PM 48.0 °F - 45.0 °F 89% 29.88 in 9.0 mi SE 11.5 mph - 0.02 in Rain Light Rain
8:53 PM 48.0 °F - 43.0 °F 83% 29.93 in 10.0 mi Calm Calm - 0.02 in Rain Light Rain
9:53 PM 44.1 °F 37.1 °F 42.1 °F 93% 29.96 in 8.0 mi SSE 15.0 mph - 0.03 in Rain Light Rain
10:53 PM 44.1 °F 39.5 °F 42.1 °F 93% 29.97 in 8.0 mi South 8.1 mph - 0.04 in Rain Light Rain
11:53 PM 45.0 °F 42.6 °F 43.0 °F 93% 29.97 in 7.0 mi South 4.6 mph - 0.02 in Rain Light Rain